Strathmore
DateTemperatureDew Point
05/10 - 01:45 PM93.2°60.5°
05/10 - 01:30 PM92.8°60.9°
05/10 - 01:15 PM93.1°60.6°
05/10 - 01:00 PM92.1°61.1°
05/10 - 12:45 PM92.1°61.7°
05/10 - 12:30 PM90.8°61.2°
05/10 - 12:15 PM90.2°61.6°
05/10 - 12:00 PM89.6°61.4°
05/10 - 11:45 AM89.1°61.6°
05/10 - 11:30 AM88.0°60.7°
05/10 - 11:15 AM87.6°59.1°
05/10 - 11:00 AM86.6°57.9°
05/10 - 10:45 AM86.3°58.3°
05/10 - 10:30 AM84.5°58.3°
05/10 - 10:15 AM84.2°58.3°
05/10 - 10:00 AM83.0°57.9°
05/10 - 09:45 AM81.7°57.2°
05/10 - 09:30 AM79.6°56.2°
05/10 - 09:15 AM78.9°56.2°
05/10 - 09:00 AM77.9°55.8°
05/10 - 08:45 AM76.7°56.2°
05/10 - 08:30 AM75.4°56.2°
05/10 - 08:15 AM74.0°56.0°
05/10 - 08:00 AM72.4°55.7°
05/10 - 07:45 AM71.0°57.0°
05/10 - 07:30 AM68.8°57.2°
05/10 - 07:15 AM67.0°57.3°
05/10 - 07:00 AM64.9°57.8°
05/10 - 06:45 AM61.2°59.5°
05/10 - 06:30 AM58.8°58.5°
05/10 - 06:15 AM57.4°56.9°
05/10 - 06:00 AM56.9°56.1°
05/10 - 05:45 AM57.2°56.1°
05/10 - 05:30 AM57.6°56.4°
05/10 - 05:15 AM57.9°56.7°
05/10 - 05:00 AM58.2°57.0°
05/10 - 04:45 AM58.2°57.0°
05/10 - 04:30 AM57.9°56.7°
05/10 - 04:15 AM58.1°56.5°
05/10 - 04:00 AM58.6°56.5°
05/10 - 03:45 AM59.4°56.4°
05/10 - 03:30 AM60.2°56.5°
05/10 - 03:15 AM60.5°56.8°
05/10 - 03:00 AM60.4°56.9°
05/10 - 02:45 AM60.8°56.8°
05/10 - 02:30 AM61.6°56.8°
05/10 - 02:15 AM62.1°56.8°
05/10 - 02:00 AM62.0°56.8°
05/10 - 01:45 AM61.9°56.2°
05/10 - 01:30 AM62.1°56.2°
05/10 - 01:15 AM61.9°56.5°
05/10 - 01:00 AM61.9°56.9°
05/10 - 12:45 AM62.4°56.9°
05/10 - 12:30 AM63.2°57.1°
05/10 - 12:15 AM64.3°56.7°
05/10 - 12:00 AM64.8°55.8°
05/09 - 11:45 PM64.8°56.2°
05/09 - 11:30 PM65.3°56.3°
05/09 - 11:15 PM65.9°56.1°
05/09 - 11:00 PM66.2°56.3°
05/09 - 10:45 PM66.6°56.4°
05/09 - 10:30 PM66.4°56.6°
05/09 - 10:15 PM66.9°56.4°
05/09 - 10:00 PM66.9°56.1°
05/09 - 09:45 PM66.6°56.6°
05/09 - 09:30 PM66.4°57.5°
05/09 - 09:15 PM66.8°59.2°
05/09 - 09:00 PM67.5°60.2°
05/09 - 08:45 PM68.6°60.5°
05/09 - 08:30 PM69.7°60.0°
05/09 - 08:15 PM71.3°59.4°
05/09 - 08:00 PM73.9°59.5°
05/09 - 07:45 PM76.7°59.6°
05/09 - 07:30 PM79.7°59.1°
05/09 - 07:15 PM82.1°57.2°
05/09 - 07:00 PM83.7°57.0°
05/09 - 06:45 PM85.3°56.8°
05/09 - 06:30 PM86.4°56.7°
05/09 - 06:15 PM87.1°57.1°
05/09 - 06:00 PM87.9°56.6°
05/09 - 05:45 PM88.4°56.4°
05/09 - 05:30 PM89.0°55.9°
05/09 - 05:15 PM89.5°55.3°
05/09 - 05:00 PM90.0°54.8°
05/09 - 04:45 PM90.1°54.1°
05/09 - 04:30 PM91.6°54.5°
05/09 - 04:15 PM91.9°53.9°
05/09 - 04:00 PM90.8°55.8°
05/09 - 03:45 PM91.0°57.2°
05/09 - 03:30 PM91.1°57.9°
05/09 - 03:15 PM90.4°57.8°
05/09 - 03:00 PM90.4°57.5°
05/09 - 02:45 PM90.5°57.1°
05/09 - 02:30 PM90.1°58.0°
05/09 - 02:15 PM89.7°58.1°
05/09 - 02:00 PM89.3°58.8°
05/09 - 01:45 PM88.0°58.7°
05/09 - 01:30 PM88.8°57.9°
05/09 - 01:15 PM88.0°60.1°
05/09 - 01:00 PM86.0°59.3°
05/09 - 12:45 PM85.9°58.3°
05/09 - 12:30 PM86.1°58.6°
05/09 - 12:15 PM86.0°59.4°
05/09 - 12:00 PM84.1°59.9°
05/09 - 11:45 AM84.3°60.2°
05/09 - 11:30 AM83.2°60.5°
05/09 - 11:15 AM82.5°61.0°
05/09 - 11:00 AM81.2°60.2°
05/09 - 10:45 AM80.6°60.1°
05/09 - 10:30 AM79.2°59.5°
05/09 - 10:15 AM79.0°59.4°
05/09 - 10:00 AM77.6°59.1°
05/09 - 09:45 AM76.3°58.4°
05/09 - 09:30 AM75.0°58.0°
05/09 - 09:15 AM74.5°58.3°
05/09 - 09:00 AM73.3°58.2°
05/09 - 08:45 AM72.1°57.9°
05/09 - 08:30 AM70.8°57.3°
05/09 - 08:15 AM69.2°56.5°
05/09 - 08:00 AM67.8°56.0°
05/09 - 07:45 AM66.6°56.0°
05/09 - 07:30 AM65.0°56.0°
05/09 - 07:15 AM62.5°56.6°
05/09 - 07:00 AM59.4°57.8°
05/09 - 06:45 AM56.1°56.1°
05/09 - 06:30 AM53.9°53.8°
05/09 - 06:15 AM52.3°52.3°
05/09 - 06:00 AM51.9°51.8°
05/09 - 05:45 AM52.1°52.1°
05/09 - 05:30 AM52.2°52.2°
05/09 - 05:15 AM52.6°52.6°
05/09 - 05:00 AM52.7°52.7°
05/09 - 04:45 AM52.2°52.1°
05/09 - 04:30 AM52.4°52.2°
05/09 - 04:15 AM52.7°52.4°
05/09 - 04:00 AM53.3°53.0°
05/09 - 03:45 AM53.9°53.6°
05/09 - 03:30 AM54.1°53.7°
05/09 - 03:15 AM54.2°53.6°
05/09 - 03:00 AM54.0°53.2°
05/09 - 02:45 AM54.2°53.0°
05/09 - 02:30 AM54.7°53.5°
05/09 - 02:15 AM55.3°54.0°
05/09 - 02:00 AM55.6°53.7°
05/09 - 01:45 AM56.0°53.3°
05/09 - 01:30 AM56.6°53.0°
05/09 - 01:15 AM56.8°53.3°
05/09 - 01:00 AM56.7°53.6°
05/09 - 12:45 AM57.4°53.7°
05/09 - 12:30 AM58.2°53.7°
05/09 - 12:15 AM58.8°53.9°
05/09 - 12:00 AM59.4°54.6°
05/08 - 11:45 PM60.3°54.7°
05/08 - 11:30 PM61.0°54.7°
05/08 - 11:15 PM61.8°55.2°
05/08 - 11:00 PM62.6°55.2°
05/08 - 10:45 PM63.1°55.4°
05/08 - 10:30 PM63.2°55.2°
05/08 - 10:15 PM63.8°55.8°
05/08 - 10:00 PM64.6°55.8°
05/08 - 09:45 PM65.4°55.1°
05/08 - 09:30 PM66.4°55.5°
05/08 - 09:15 PM66.7°55.2°
05/08 - 09:00 PM66.9°55.4°
05/08 - 08:45 PM67.3°55.4°
05/08 - 08:30 PM68.7°56.3°
05/08 - 08:15 PM70.9°55.1°
05/08 - 08:00 PM73.6°54.1°
05/08 - 07:45 PM76.2°52.6°
05/08 - 07:30 PM78.7°51.5°
05/08 - 07:15 PM81.2°51.4°
05/08 - 07:00 PM83.2°50.9°
05/08 - 06:45 PM84.7°51.7°
05/08 - 06:30 PM85.8°51.9°
05/08 - 06:15 PM86.6°50.9°
05/08 - 06:00 PM87.3°50.6°
05/08 - 05:45 PM87.8°52.2°
05/08 - 05:30 PM88.2°54.3°
05/08 - 05:15 PM89.0°55.1°
05/08 - 05:00 PM89.2°56.1°
05/08 - 04:45 PM89.6°57.2°
05/08 - 04:30 PM90.4°59.3°
05/08 - 04:15 PM90.9°60.4°
05/08 - 04:00 PM90.9°60.7°
05/08 - 03:45 PM90.9°60.6°
05/08 - 03:30 PM91.1°61.6°
05/08 - 03:15 PM91.2°63.0°
05/08 - 03:00 PM90.7°61.9°
05/08 - 02:45 PM91.1°61.8°
05/08 - 02:30 PM90.9°63.1°